Temperature
21 21 21 21 21 21 22 24 24 23 23 22 22 22 22 21 20 17 15 14 14 15 14 14 13 13 12 11 11 10 9 9 8 8 8 7 7 7 7 7 6 6 6 6 6 6 7 7 7
20 20 21 22 21 21 22 24 24 23 22 21 20 20 21 21 19 18 16 14 15 14 14 14 13 13 12 12 11 10 10 9 9 8 8 8 7 7 7 7 7 7 7 6 6 6 7 7 8
20 20 21 21 21 21 23 24 23 21 20 20 20 20 21 20 19 19 17 16 15 14 14 14 13 13 13 12 11 11 10 10 9 9 9 8 8 8 7 7 7 7 7 7 7 7 7 7 8
20 21 23 22 22 23 24 24 23 21 20 20 21 21 20 18 18 19 18 16 15 14 14 14 13 13 13 12 11 11 11 10 10 10 9 9 9 8 8 8 7 7 7 7 7 7 7 8 8
20 22 22 21 22 24 25 24 23 22 21 20 20 21 20 19 19 19 18 16 15 14 13 14 13 13 12 12 11 11 11 11 10 10 10 10 9 9 9 8 8 8 7 7 7 8 8 8 8
22 23 21 21 23 25 25 24 23 23 23 22 20 20 20 19 19 19 17 16 15 14 13 14 13 12 12 12 11 11 11 11 10 10 10 10 10 9 9 8 8 8 8 8 8 8 8 8 8
22 21 21 22 22 23 25 24 23 23 23 23 21 20 19 18 18 18 17 15 14 13 13 13 13 12 12 12 11 11 11 11 10 10 10 10 9 9 9 9 8 8 8 8 8 7 7 7 7
21 21 21 21 22 23 25 23 22 22 22 22 21 20 20 18 18 17 16 14 13 12 12 13 13 12 12 12 11 11 11 11 10 10 10 10 9 9 9 9 8 8 8 8 8 7 7 7 7
21 20 20 21 22 23 24 23 22 21 20 21 20 20 19 18 17 16 15 14 12 12 12 12 12 12 12 12 11 11 11 10 10 10 10 10 9 9 9 9 8 8 8 8 8 7 7 7 7
21 19 20 22 23 22 22 22 22 21 20 20 20 19 18 17 17 16 16 16 14 14 13 12 11 12 11 11 11 11 10 10 10 10 10 9 9 9 9 9 8 8 8 8 8 7 7 7 7
22 21 21 23 23 21 20 21 21 21 19 20 20 20 18 18 17 16 17 17 17 16 14 13 12 11 11 10 10 11 10 10 10 10 10 9 9 9 9 9 8 8 8 8 8 7 7 7 6
21 21 22 22 21 19 19 20 20 21 20 21 21 21 19 18 18 18 17 17 16 15 15 14 13 11 10 10 10 10 10 11 11 10 10 10 9 9 9 9 8 8 8 8 8 7 7 7 6
21 20 22 21 20 18 18 18 18 19 20 20 20 20 19 18 18 18 17 16 16 16 15 15 14 12 11 10 10 10 10 10 11 10 10 10 10 9 9 9 8 8 8 8 7 7 7 6 6
21 20 20 21 20 19 18 18 18 19 20 20 20 20 19 18 18 17 16 15 15 15 15 15 14 13 12 11 11 11 10 10 10 10 10 10 10 9 9 9 8 8 8 7 7 7 6 6 6
19 18 19 20 20 19 18 17 18 20 21 20 21 20 19 18 18 17 17 16 16 15 15 15 14 13 13 12 11 11 11 10 10 10 10 10 10 9 9 9 8 8 7 7 7 6 6 6 6
19 19 19 21 20 18 16 16 20 22 22 22 22 21 21 20 19 18 17 16 16 15 14 14 14 13 13 12 12 11 11 10 10 10 11 10 10 9 9 9 8 8 7 7 7 6 6 6 6
19 19 20 21 19 19 17 16 19 21 22 22 22 22 21 21 20 19 18 17 16 15 14 14 14 14 13 12 12 11 11 10 10 10 11 11 10 9 9 9 8 8 7 7 7 7 6 6 6
19 19 19 19 21 19 17 17 19 21 22 22 22 22 21 21 21 20 19 18 17 16 14 13 13 13 12 11 11 10 10 10 10 10 10 11 11 10 9 9 8 8 7 7 7 7 6 6 5
19 18 18 19 20 19 18 18 19 20 21 21 21 20 20 20 20 20 20 19 17 16 15 13 13 12 12 11 11 11 11 11 11 10 10 10 10 10 9 9 8 8 8 7 7 6 6 5 5
18 18 18 19 20 19 17 17 18 20 21 21 20 20 19 19 19 19 19 18 17 16 15 14 13 12 12 12 13 12 12 12 12 11 10 10 10 10 10 9 9 8 8 7 7 6 6 5 5
18 18 18 18 17 18 17 17 20 21 21 20 20 19 18 18 18 18 18 17 17 16 15 14 13 12 12 12 11 10 10 10 10 11 11 11 10 10 10 10 9 9 8 8 7 7 6 5 5
18 18 17 17 16 16 18 15 18 20 19 19 19 19 18 18 17 17 17 17 16 16 15 14 13 12 12 11 10 10 11 11 13 12 12 11 10 10 10 9 9 8 8 8 7 7 6 5 4
18 17 16 16 15 15 17 16 17 20 19 18 18 19 18 17 17 17 16 16 15 15 14 14 13 12 11 10 10 10 10 11 10 10 9 9 9 9 9 8 8 8 7 7 7 6 5 5 5
17 16 16 16 15 15 18 17 18 20 20 19 19 19 18 17 17 16 16 15 15 15 14 13 13 12 11 10 9 9 9 9 8 8 8 8 8 8 8 7 7 7 7 6 6 5 4 4 3
16 16 16 16 14 16 18 17 17 20 20 19 19 18 17 16 16 15 15 15 14 14 14 13 13 12 11 10 9 9 9 8 8 7 7 7 6 7 7 6 6 6 6 5 4 3 3 2 2
18 17 16 16 17 17 18 16 18 20 20 20 19 18 17 16 15 15 14 14 14 13 13 13 13 12 12 11 10 9 8 8 8 7 7 6 6 6 6 5 5 5 5 4 3 2 2 1 1
18 17 17 16 16 15 17 19 20 20 19 19 19 17 16 15 15 14 14 13 13 13 13 13 13 12 12 11 11 10 9 9 8 8 7 6 6 5 5 5 5 4 4 4 3 2 2 1 0
16 15 15 15 15 15 17 18 18 19 19 18 17 17 15 15 14 13 13 13 13 12 12 12 12 12 12 12 11 11 10 10 9 8 8 7 7 6 5 5 4 4 4 3 2 1 1 -0 -0
14 15 15 15 15 14 14 16 19 19 19 17 17 16 15 14 13 13 13 12 12 12 12 12 12 12 12 11 11 11 11 10 9 9 9 8 7 6 6 5 4 4 3 3 2 1 0 -0 -1
17 17 16 14 15 15 14 15 20 19 18 17 16 15 14 14 13 13 12 12 12 11 11 11 11 11 11 11 11 10 10 10 10 9 9 8 8 7 7 6 5 4 3 3 2 1 0 -1 -1
Wind_Speed
10 12 8 3 4 5 8 0 4 6 4 5 5 2 5 6 3 4 7 10 15 20 24 24 22 20 18 16 14 13 12 11 11 11 11 11 12 12 12 13 13 14 14 15 16 16 17 18 18
10 8 5 4 5 6 6 2 6 9 7 6 4 1 3 2 7 10 8 10 19 22 24 23 23 21 19 17 15 14 13 12 11 11 11 11 11 11 11 11 12 12 13 13 14 15 15 16 17
8 8 4 4 7 8 5 5 10 8 6 4 5 3 4 5 11 11 10 15 19 21 24 24 25 22 20 18 17 15 14 13 12 12 11 10 10 10 10 10 10 11 11 12 12 13 13 14 15
5 4 5 6 10 10 3 6 10 8 4 3 4 4 4 6 7 11 15 15 15 17 24 26 26 23 21 19 18 16 15 14 13 12 11 10 10 10 9 9 9 9 9 10 11 11 12 13 14
4 4 6 8 12 11 3 7 6 4 7 9 6 5 7 6 11 16 16 14 15 14 23 26 26 24 22 20 19 18 16 15 13 12 12 11 10 9 9 8 8 8 8 8 9 9 10 11 12
4 4 7 9 11 8 1 8 7 5 6 6 9 6 4 9 12 15 14 13 13 13 22 26 26 24 23 21 20 19 17 16 14 13 12 11 10 9 9 8 7 6 6 6 7 7 8 9 10
5 6 8 11 11 10 7 7 5 4 6 5 10 5 7 8 11 14 13 11 12 16 19 23 23 24 23 22 21 20 19 17 16 14 13 12 11 9 9 8 6 5 5 5 5 5 5 7 8
4 5 10 10 11 10 5 4 1 3 6 2 9 6 4 10 13 13 12 10 11 11 14 21 22 22 22 22 22 21 20 19 17 15 14 13 11 10 9 8 7 5 4 3 3 2 2 3 5
3 5 9 11 10 9 5 1 4 4 4 3 5 1 7 17 15 13 11 10 11 12 10 16 21 22 22 21 22 22 21 20 19 17 16 14 12 11 10 9 9 7 5 4 2 1 1 2 1
4 5 10 10 8 8 9 8 7 4 7 8 8 7 11 15 15 15 16 17 17 16 15 10 16 21 23 22 21 21 20 19 19 18 17 16 15 15 13 12 10 8 7 6 5 4 5 4 1
6 7 9 9 7 6 7 9 9 9 11 11 12 14 17 15 16 17 18 19 18 16 15 13 12 19 21 19 20 19 19 19 20 21 21 19 16 13 11 13 12 10 10 10 9 9 9 4 1
6 10 10 7 4 3 6 8 9 12 14 11 10 5 19 19 20 21 20 18 16 14 17 15 13 13 18 19 17 19 18 18 19 21 24 20 15 14 14 14 16 15 14 13 12 11 9 6 5
9 10 9 6 5 7 9 12 11 16 15 12 11 9 17 19 18 18 17 16 16 18 18 17 14 12 14 14 14 16 16 17 20 21 23 22 16 13 14 14 15 16 16 15 12 12 10 9 7
7 9 10 10 9 7 9 11 8 15 13 13 13 13 13 18 18 16 16 17 19 19 19 17 17 14 14 11 10 12 15 17 19 19 22 23 20 17 14 13 14 15 16 15 15 13 9 8 7
4 7 12 12 10 4 3 9 10 17 13 12 12 12 13 15 16 18 18 18 17 16 18 19 17 15 14 12 13 14 16 18 17 19 23 24 22 20 18 13 12 16 17 16 14 12 8 6 6
6 6 7 3 8 6 1 10 10 9 8 11 11 12 12 15 17 18 17 17 16 14 17 19 18 18 16 13 13 13 16 17 18 20 23 25 25 23 19 13 12 18 18 15 10 6 5 6 6
7 6 8 5 7 6 7 12 14 12 13 13 11 9 10 11 15 18 19 19 18 16 16 18 18 18 17 13 12 13 14 15 18 20 21 24 26 25 20 15 15 18 15 12 9 6 7 6 6
8 9 10 10 5 6 10 16 21 14 10 8 6 5 4 5 7 10 16 17 17 16 15 17 17 16 14 12 10 9 10 10 16 18 20 22 25 26 22 16 16 17 9 9 8 8 8 6 5
8 9 13 13 7 4 10 17 20 16 6 5 6 7 7 7 7 3 7 12 14 15 14 16 17 16 14 13 14 14 14 11 10 12 20 23 24 25 23 14 14 14 11 11 11 8 8 8 5
8 10 12 11 4 7 12 15 17 8 3 5 6 7 8 9 10 8 3 6 10 13 14 14 16 17 15 14 13 10 10 9 10 8 16 23 24 25 25 17 11 11 11 13 13 10 8 7 8
10 10 9 9 10 9 9 10 3 6 10 8 8 9 9 9 9 8 6 1 6 10 13 13 14 16 17 14 8 7 7 7 10 12 14 16 23 25 23 22 15 12 13 14 16 14 14 11 10
8 3 5 7 7 6 6 6 7 6 8 8 8 8 8 8 8 7 6 3 2 7 10 12 12 14 14 15 13 14 15 17 17 12 11 12 18 21 24 22 20 13 13 14 15 16 13 10 9
5 4 6 7 7 6 6 6 8 5 7 8 8 8 7 7 8 8 6 5 2 3 7 9 11 12 12 14 16 15 17 15 10 9 11 14 14 17 20 21 18 16 14 15 14 15 15 14 12
6 8 9 5 3 5 5 6 7 1 6 7 7 7 8 8 9 9 8 6 4 1 3 6 8 10 11 13 15 16 18 14 12 12 13 12 11 13 16 17 16 15 15 15 15 14 16 16 15
5 5 3 2 4 5 2 3 8 2 7 8 6 6 8 8 8 9 9 9 7 4 1 4 7 9 9 11 14 15 16 15 15 13 12 11 11 12 15 17 17 16 16 13 12 15 16 17 16
3 3 4 4 4 5 3 7 7 2 5 6 6 6 7 8 7 8 8 8 7 7 4 2 5 8 9 10 12 13 13 12 12 13 12 12 12 12 12 17 18 18 16 16 15 15 16 14 17
4 3 1 3 7 6 6 7 5 2 5 6 6 6 7 6 7 7 7 7 6 6 5 3 3 5 7 9 10 11 12 12 13 13 12 12 11 10 12 15 17 18 18 17 16 16 17 15 15
5 6 3 4 4 5 7 7 2 3 1 3 4 5 6 6 6 7 6 6 5 4 3 2 2 3 4 6 8 8 10 11 12 11 13 13 12 11 11 12 15 16 17 17 17 16 15 16 16
6 4 5 5 6 4 5 5 3 5 4 5 4 5 6 6 5 5 6 6 6 5 4 3 3 3 4 5 6 8 8 9 10 11 12 12 12 12 13 12 13 15 16 17 17 18 15 18 17
3 4 5 5 7 6 7 7 4 2 4 4 5 6 5 5 4 4 5 7 7 7 7 6 5 4 4 5 6 7 8 8 9 11 11 11 12 12 12 12 13 14 15 16 18 19 19 19 20
Wind_Direction
272 253 244 256 251 253 274 304 86 97 93 73 69 348 335 348 22 132 171 171 135 145 152 157 156 155 153 150 145 141 136 129 123 116 109 102 96 89 84 79 75 71 67 63 60 58 57 55 53
277 249 247 247 258 275 288 67 89 78 78 91 95 272 270 96 102 124 158 158 145 150 153 159 159 158 157 155 152 149 144 138 132 125 118 110 103 97 90 84 79 75 70 66 61 58 56 55 52
270 256 248 243 253 261 282 63 83 86 98 148 174 215 287 91 128 147 159 146 149 152 156 161 161 161 161 160 159 156 151 147 142 135 128 120 113 105 97 89 83 78 73 68 63 58 55 54 51
258 229 238 248 267 277 300 77 99 121 142 222 239 195 162 91 126 143 146 152 153 155 158 160 164 165 165 165 164 162 159 155 151 145 138 130 122 114 106 99 91 84 78 71 65 58 54 52 48
237 247 242 253 261 268 255 101 110 176 180 186 212 261 138 99 103 128 149 160 158 158 156 161 168 169 169 170 169 167 165 162 159 154 148 142 134 127 120 111 101 91 83 75 67 58 52 49 45
252 252 260 263 269 278 244 133 146 210 261 188 175 240 133 134 132 142 158 166 161 159 154 164 173 173 174 174 174 173 171 169 166 163 158 153 147 142 136 127 115 104 93 81 70 60 50 45 42
278 276 271 280 292 303 316 119 171 218 260 237 158 201 136 166 150 147 159 168 164 162 156 164 176 177 178 179 179 178 177 175 173 171 167 163 158 154 150 144 137 126 113 98 81 64 49 42 39
314 289 280 279 284 291 325 118 91 314 285 280 152 210 159 167 144 145 157 173 170 165 164 166 176 178 180 183 184 183 181 180 178 177 173 171 169 165 163 162 158 152 144 131 110 77 49 38 38
276 263 270 276 288 303 350 198 194 143 289 269 184 158 91 127 139 150 160 181 182 177 176 172 177 179 181 183 188 186 186 185 182 180 180 177 173 173 179 177 173 175 176 175 175 210 274 275 336
233 255 264 282 308 328 331 309 289 216 224 238 209 138 130 141 157 170 177 186 190 188 185 183 181 180 181 185 186 184 186 186 180 176 181 183 192 187 185 179 181 190 196 203 212 234 249 265 319
245 252 273 295 337 346 311 293 281 264 253 237 226 188 163 167 175 187 192 194 194 189 186 188 188 182 181 183 177 182 186 182 184 181 181 192 198 183 168 167 187 198 208 216 217 230 237 237 186
251 279 288 295 355 314 284 283 280 251 247 252 270 245 168 178 188 195 199 199 194 190 193 190 188 185 181 180 178 182 185 183 188 189 181 190 188 180 183 184 186 196 203 214 211 222 217 212 222
253 262 275 288 278 255 267 272 279 267 264 264 257 236 177 191 200 203 204 201 195 195 194 192 188 188 183 179 181 185 186 183 185 188 184 186 184 185 189 197 195 197 199 201 210 222 214 207 217
307 319 296 274 256 251 257 268 265 263 252 246 241 232 201 198 203 205 207 207 202 197 194 191 192 190 186 185 185 188 187 182 184 188 190 190 188 188 192 196 198 199 203 199 204 216 210 208 213
308 285 275 248 219 223 297 275 237 248 248 247 237 226 215 208 202 208 209 210 206 197 192 191 193 191 190 191 191 192 191 186 189 190 194 197 195 192 193 197 196 198 202 202 204 214 208 210 214
232 252 264 203 167 146 167 272 259 299 297 262 242 230 220 214 209 210 209 207 206 197 191 190 193 194 194 192 194 196 196 194 195 194 196 200 201 198 195 197 198 196 197 198 195 200 192 208 211
225 265 303 347 171 183 209 268 281 290 285 277 265 249 236 227 215 211 206 202 200 198 190 188 189 192 194 191 193 199 201 202 200 200 198 200 202 202 199 199 199 194 193 194 197 197 196 203 209
329 329 317 313 285 236 251 274 292 300 295 293 302 310 293 270 249 217 203 198 193 192 188 186 187 189 189 190 194 200 209 208 206 205 204 200 202 203 203 202 199 194 192 194 196 199 199 202 200
328 303 295 293 312 316 277 285 295 303 322 359 14 12 4 347 331 306 190 185 182 183 185 184 186 188 188 194 200 203 210 210 209 207 206 202 201 201 203 204 201 198 199 199 196 192 198 204 183
286 283 285 292 346 318 281 287 287 277 102 76 58 45 30 14 7 7 42 157 177 182 186 186 187 189 193 200 203 204 204 210 214 210 211 207 203 201 205 205 202 201 201 201 200 195 193 197 185
274 276 296 316 329 282 273 297 267 118 104 91 74 63 50 36 26 17 21 84 180 187 189 195 192 193 195 194 192 198 204 209 216 216 215 211 207 205 206 208 206 204 204 208 205 198 196 202 197
283 343 338 321 323 305 329 305 288 158 119 104 87 68 51 41 35 29 22 8 212 203 196 196 196 197 195 192 199 202 209 217 220 217 215 212 212 210 209 209 209 209 210 212 209 206 202 194 199
295 341 284 285 288 286 252 233 278 217 132 115 99 81 63 50 41 31 22 355 315 213 197 198 199 203 198 199 205 211 221 228 227 217 217 216 216 216 214 212 211 214 215 214 211 209 206 206 204
303 292 258 232 260 262 224 206 280 291 119 113 96 76 58 42 35 28 21 10 353 331 192 196 204 213 207 205 209 215 224 227 227 225 224 221 219 218 217 215 215 216 218 217 214 212 212 212 212
236 288 306 221 217 228 120 234 253 285 95 103 98 73 57 41 33 23 16 10 4 353 254 204 210 224 220 216 218 221 226 227 231 232 231 227 226 223 219 217 219 220 220 217 213 215 217 215 214
277 301 301 298 291 316 260 236 250 150 108 116 108 87 63 48 39 30 21 16 10 6 351 261 225 228 226 225 226 226 226 228 235 234 233 234 233 229 217 215 219 221 219 220 218 220 221 219 220
272 223 43 322 287 270 249 243 242 172 128 116 99 77 66 56 44 33 22 19 16 13 4 350 297 255 236 230 231 230 229 229 233 233 233 239 239 232 218 214 216 219 219 219 219 224 224 221 222
283 324 308 246 267 277 273 266 260 128 114 85 64 68 74 61 46 32 16 9 11 8 357 360 334 293 267 247 238 237 234 233 233 232 235 237 238 234 227 219 217 217 218 218 220 225 223 222 223
178 207 226 255 270 273 286 274 357 349 35 47 34 69 78 66 50 30 7 358 359 355 351 340 305 281 274 268 260 252 246 241 238 238 239 238 238 234 232 228 223 220 219 218 221 224 220 223 225
157 232 238 248 261 259 276 274 309 61 70 35 41 66 78 76 54 28 5 351 349 344 338 333 317 296 270 256 258 261 259 251 245 245 245 241 240 237 235 232 230 228 223 219 220 224 223 223 224
Height
1539 1541 1542 1544 1545 1544 1541 1532 1529 1535 1537 1541 1543 1544 1544 1544 1547 1555 1554 1553 1554 1556 1559 1562 1564 1566 1568 1569 1570 1571 1571 1572 1572 1573 1573 1573 1572 1572 1572 1571 1571 1570 1569 1569 1568 1567 1566 1565 1563
1538 1542 1544 1544 1544 1550 1542 1530 1530 1535 1539 1542 1544 1545 1545 1544 1546 1548 1549 1551 1552 1554 1557 1560 1562 1565 1566 1568 1569 1570 1571 1571 1572 1572 1572 1572 1572 1572 1572 1571 1571 1570 1569 1568 1568 1567 1566 1565 1564
1539 1542 1544 1541 1543 1545 1538 1530 1532 1538 1540 1542 1544 1545 1544 1544 1544 1546 1547 1548 1550 1552 1555 1558 1560 1563 1565 1566 1568 1569 1570 1570 1571 1571 1572 1572 1572 1571 1571 1571 1570 1570 1569 1568 1567 1567 1566 1565 1565
1541 1543 1542 1541 1541 1531 1527 1528 1532 1538 1541 1542 1543 1543 1543 1544 1543 1544 1545 1546 1548 1551 1552 1555 1558 1561 1563 1565 1566 1567 1568 1569 1570 1570 1571 1571 1571 1571 1570 1570 1570 1569 1569 1568 1567 1567 1566 1565 1565
1541 1541 1540 1542 1537 1527 1523 1526 1530 1534 1537 1539 1541 1540 1540 1540 1540 1542 1543 1545 1546 1549 1550 1552 1556 1558 1561 1562 1564 1566 1567 1568 1569 1569 1570 1570 1570 1570 1570 1569 1569 1569 1568 1568 1567 1566 1566 1565 1565
1541 1538 1543 1543 1532 1522 1520 1523 1528 1531 1533 1534 1537 1539 1538 1537 1538 1539 1541 1543 1545 1547 1548 1550 1553 1556 1558 1560 1562 1563 1565 1566 1567 1567 1568 1568 1569 1569 1569 1568 1568 1568 1567 1567 1566 1566 1565 1565 1564
1541 1539 1541 1537 1533 1526 1522 1523 1526 1528 1530 1531 1532 1535 1534 1534 1535 1536 1539 1541 1543 1545 1545 1547 1550 1553 1555 1557 1559 1561 1562 1563 1564 1565 1566 1567 1567 1567 1567 1567 1567 1567 1566 1566 1566 1565 1565 1564 1564
1539 1539 1538 1535 1533 1528 1522 1524 1526 1527 1528 1529 1529 1531 1529 1530 1531 1533 1536 1538 1540 1542 1543 1543 1546 1549 1551 1554 1556 1558 1559 1560 1562 1563 1564 1565 1565 1565 1565 1565 1565 1565 1565 1565 1564 1564 1564 1564 1563
1539 1541 1541 1535 1531 1526 1523 1524 1525 1525 1527 1527 1527 1528 1527 1527 1528 1530 1532 1534 1536 1538 1539 1540 1542 1544 1547 1550 1552 1554 1556 1557 1558 1560 1561 1562 1563 1563 1563 1563 1563 1563 1563 1563 1563 1563 1562 1562 1562
1537 1541 1535 1528 1525 1524 1523 1523 1523 1523 1523 1523 1525 1525 1524 1524 1525 1526 1526 1527 1530 1531 1534 1536 1538 1540 1542 1545 1547 1549 1551 1553 1554 1556 1558 1559 1560 1560 1561 1561 1561 1561 1561 1561 1561 1561 1561 1560 1560
1533 1532 1528 1525 1524 1524 1523 1522 1521 1520 1518 1518 1519 1518 1517 1518 1520 1521 1522 1523 1524 1527 1529 1531 1534 1536 1538 1540 1541 1544 1546 1548 1550 1551 1554 1555 1556 1557 1557 1558 1558 1558 1559 1559 1559 1559 1558 1558 1558
1531 1528 1526 1524 1523 1523 1523 1521 1518 1515 1512 1514 1515 1515 1511 1511 1513 1514 1516 1518 1520 1522 1523 1526 1529 1531 1533 1535 1537 1538 1540 1542 1544 1547 1549 1551 1552 1553 1554 1554 1555 1555 1556 1556 1556 1556 1555 1555 1555
1528 1526 1524 1522 1522 1522 1521 1519 1518 1510 1507 1508 1509 1510 1509 1507 1508 1509 1511 1514 1515 1516 1518 1520 1523 1526 1528 1530 1532 1533 1535 1537 1539 1542 1544 1546 1548 1549 1550 1550 1551 1551 1551 1552 1552 1552 1552 1552 1551
1526 1524 1522 1520 1519 1518 1517 1515 1515 1502 1502 1502 1503 1504 1504 1503 1503 1505 1506 1507 1508 1510 1512 1515 1517 1520 1522 1524 1526 1528 1530 1532 1534 1536 1539 1541 1542 1544 1545 1545 1546 1546 1547 1547 1548 1548 1548 1548 1547
1526 1525 1519 1512 1513 1515 1516 1512 1506 1497 1498 1498 1497 1497 1498 1499 1499 1498 1499 1501 1503 1505 1507 1509 1512 1514 1516 1518 1521 1523 1525 1527 1529 1530 1533 1535 1536 1538 1539 1540 1540 1541 1542 1542 1543 1543 1543 1543 1543
1524 1524 1521 1507 1509 1512 1518 1513 1499 1496 1495 1493 1492 1492 1491 1491 1491 1491 1493 1495 1498 1500 1502 1503 1506 1508 1510 1512 1515 1517 1519 1521 1522 1524 1526 1529 1531 1532 1533 1533 1534 1536 1536 1537 1537 1538 1538 1538 1537
1522 1524 1518 1511 1509 1510 1514 1508 1493 1494 1492 1488 1486 1485 1485 1485 1484 1484 1485 1488 1491 1494 1496 1498 1499 1501 1504 1507 1509 1512 1514 1515 1516 1518 1519 1521 1524 1525 1526 1527 1528 1530 1530 1530 1531 1531 1532 1532 1531
1526 1525 1520 1517 1508 1508 1509 1501 1489 1487 1486 1483 1482 1481 1480 1480 1480 1479 1479 1481 1484 1487 1491 1492 1494 1496 1499 1502 1504 1505 1507 1508 1509 1510 1511 1513 1515 1518 1519 1520 1521 1523 1523 1523 1524 1524 1525 1525 1525
1522 1524 1524 1515 1506 1507 1506 1499 1488 1483 1482 1481 1480 1480 1479 1478 1477 1476 1475 1477 1479 1482 1485 1486 1488 1489 1492 1494 1495 1496 1497 1499 1501 1502 1504 1505 1507 1509 1511 1512 1513 1514 1514 1515 1517 1518 1518 1518 1519
1522 1524 1521 1511 1504 1507 1503 1496 1485 1480 1480 1481 1481 1481 1480 1479 1476 1475 1475 1475 1476 1478 1480 1481 1482 1483 1484 1486 1487 1489 1491 1493 1494 1496 1496 1497 1498 1499 1501 1503 1504 1506 1506 1507 1508 1509 1509 1510 1511
1520 1521 1517 1515 1510 1503 1503 1499 1483 1479 1479 1481 1482 1482 1481 1480 1478 1476 1475 1475 1475 1475 1475 1476 1477 1478 1478 1480 1483 1484 1485 1485 1486 1485 1486 1488 1489 1490 1491 1493 1495 1496 1497 1497 1498 1499 1500 1500 1501
1521 1514 1515 1516 1520 1517 1508 1518 1491 1480 1481 1481 1482 1482 1482 1481 1479 1478 1476 1475 1474 1473 1473 1473 1473 1473 1474 1475 1475 1475 1475 1473 1473 1476 1478 1480 1482 1482 1483 1484 1485 1486 1487 1487 1488 1489 1490 1491 1490
1514 1513 1515 1516 1519 1521 1509 1514 1497 1479 1482 1482 1481 1482 1482 1481 1480 1478 1476 1475 1473 1471 1470 1469 1469 1469 1470 1470 1470 1470 1469 1468 1471 1472 1472 1472 1473 1474 1474 1475 1475 1476 1476 1476 1478 1478 1479 1479 1480
1515 1514 1512 1515 1519 1525 1503 1507 1499 1480 1478 1480 1480 1481 1482 1482 1480 1478 1476 1474 1472 1469 1468 1466 1466 1465 1466 1466 1465 1464 1463 1464 1465 1465 1464 1465 1465 1464 1465 1465 1465 1465 1466 1466 1467 1468 1469 1468 1469
1517 1519 1520 1522 1529 1518 1498 1501 1496 1476 1474 1476 1479 1481 1481 1481 1479 1477 1475 1473 1471 1468 1466 1464 1463 1462 1462 1462 1461 1460 1459 1460 1459 1459 1459 1459 1458 1456 1455 1456 1456 1455 1456 1456 1457 1458 1457 1457 1457
1513 1516 1526 1530 1521 1510 1498 1503 1486 1472 1473 1475 1478 1479 1480 1479 1478 1477 1475 1473 1471 1468 1466 1463 1461 1460 1458 1457 1456 1455 1455 1454 1452 1452 1452 1451 1450 1449 1449 1448 1447 1446 1446 1447 1447 1447 1446 1447 1446
1512 1513 1511 1521 1518 1519 1503 1485 1473 1469 1472 1474 1476 1477 1478 1478 1477 1476 1475 1473 1471 1468 1466 1463 1461 1458 1456 1454 1452 1451 1449 1448 1446 1445 1444 1443 1442 1442 1442 1440 1438 1437 1437 1436 1437 1436 1435 1436 1435
1514 1514 1517 1521 1525 1522 1501 1490 1485 1475 1475 1475 1475 1476 1477 1476 1476 1475 1474 1473 1471 1468 1465 1463 1460 1457 1454 1452 1449 1447 1444 1442 1440 1438 1435 1433 1433 1433 1432 1431 1429 1428 1426 1426 1426 1424 1424 1424 1423
1516 1516 1515 1516 1513 1521 1517 1499 1474 1472 1472 1474 1474 1475 1475 1475 1475 1475 1474 1472 1470 1468 1465 1462 1458 1455 1452 1449 1446 1443 1440 1437 1434 1431 1428 1426 1424 1423 1422 1421 1420 1418 1416 1415 1415 1413 1413 1413 1413
1501 1504 1509 1519 1514 1508 1512 1499 1471 1469 1470 1472 1474 1474 1474 1474 1474 1473 1472 1471 1468 1466 1463 1460 1456 1453 1449 1445 1442 1438 1435 1432 1428 1425 1422 1419 1416 1414 1412 1411 1409 1408 1406 1405 1403 1402 1401 1401 1400